www.pogodaiklimat.ru
ПОГОДА в Скенектади
Время
(UTC), дата
01:58 07.11
11:45 08.11
12:45 08.11
13:45 08.11
15:50 08.11
16:50 08.11
17:45 08.11
18:55 08.11
19:50 08.11
20:59 08.11
21:52 08.11
22:59 08.11
23:47 08.11
00:59 08.11
01:53 08.11
11:45 09.11
13:50 09.11
16:45 09.11
17:48 09.11
18:59 09.11
19:59 09.11
20:50 09.11
21:45 09.11
22:55 09.11
23:46 09.11
00:55 09.11
11:45 10.11
12:55 10.11
13:45 10.11
15:45 10.11
16:45 10.11
17:50 10.11
18:59 10.11
19:50 10.11
20:45 10.11
21:59 10.11
22:45 10.11
23:59 10.11
00:58 10.11
11:45 11.11
15:45 11.11
16:45 11.11
17:45 11.11
18:52 11.11
19:54 11.11
21:49 11.11
23:46 11.11
00:49 11.11
Ветер
(напр.,м/с)
Видим. Явления Облачность Т
(С)
Тd
(С)
f
(%)
Тe
(С)
Тes
(С)
Комфортность P
(гПа)
Po
(гПа)
Тmin
(С)
Tmax
(С)
R
(мм)
R24
(мм)
S
(см)
З 5
{8}
16 км 10/0 2250 м
[средняя]
+1.0 -1.0 86 -5 -5 1004.7
СЗ 5 16 км ясно -3.0 -8.0 68 -10 -10 1006.7
З 6
{9}
16 км ясно -3.0 -8.0 68 -11 -11 1007.0
СЗ 6
{10}
16 км 5/5 1080 м -1.0 -9.0 55 -8 -8 1007.4
З 6
{10}
16 км 10/10 1170 м +1.0 -9.0 47 -5 -5 1007.0
СЗ 4
{9}
16 км 8/8 1230 м 0.0 -9.0 51 -5 -5 1007.0
СЗ 6
{10}
16 км 10/10 990 м +1.0 -10.0 44 -5 -5 1007.4
СЗ 7
{9}
16 км 10/8 1800 м
[средняя]
+1.0 -12.0 37 -5 -5 1007.7
СЗ 5 16 км 10/10 1800 м +1.0 -12.0 37 -4 -4 1008.4
СЗ 3 16 км 8/8 1800 м -1.0 -12.0 43 -6 -5 1009.4
СЗ 3 16 км ясно -2.0 -11.0 50 -7 -7 1010.0
З 5 16 км ясно -2.0 -11.0 50 -9 -9 1010.7
З 4 16 км ясно -3.0 -10.0 58 -9 -9 1011.0
З 4 16 км ясно -3.0 -9.0 63 -9 -9 1011.4
СЗ 1 16 км ясно -3.0 -9.0 63 -6 -6 1011.7
Ю 1 16 км ясно -6.0 -7.0 93 -10 -10 1012.7
Ю 3 16 км ясно 0.0 -7.0 59 -4 -3 1012.0
ЮВ 3 16 км ясно +3.0 -8.0 44 -1 +3 1008.7
ЮВ 4 16 км ясно +4.0 -8.0 41 0 +3 1007.7
Ю 5
{8}
16 км ясно +3.0 -10.0 38 -2 -1 1006.7
Ю 3
{8}
16 км ясно +3.0 -10.0 38 -1 +1 1006.7
Ю 4 16 км ясно +2.0 -11.0 37 -2 -2 1006.4
Ю 3 16 км ясно +1.0 -11.0 40 -3 -3 1006.7
Ю 2 16 км ясно +1.0 -11.0 40 -2 -2 1006.7
Ю 3 16 км ясно 0.0 -11.0 43 -4 -4 1006.4
Ю 3 16 км ясно 0.0 -11.0 43 -4 -4 1006.4
Ю 2 16 км 10/0 3300 м
[средняя]
+1.0 -7.0 55 -2 -2 1002.7
Ю 2 16 км 8/0 2400 м
[средняя]
+2.0 -7.0 51 -1 -1 1002.4
Ю 3 16 км ясно +3.0 -7.0 48 -1 +1 1002.0
Ю 2 16 км ясно +3.0 -7.0 48 0 +4 1001.0
Ю 2 16 км 10/10 1320 м +6.0 -6.0 42 +4 +4 1000.3
Ю 3 16 км 10/10 1410 м +7.0 -4.0 45 +5 +5 1000.0
0 16 км 10/10 1500 м +7.0 -4.0 45 +7 +7 1000.0
0 16 км 10/10 1380 м +7.0 -3.0 49 +7 +7 1000.7
Ю 1 16 км 10/10 1320 м +7.0 -3.0 49 +6 +6 1001.0
0 16 км 10/10 1380 м +7.0 -3.0 49 +7 +7 1001.0
0 16 км 10/10 1320 м +5.0 0.0 70 +4 +4 1001.4
0 16 км 10/10 1320 м +5.0 -1.0 65 +4 +4 1002.0
0 16 км 10/10 1230 м +5.0 -1.0 65 +4 +4 1002.0
СВ 4 16 км слабая морось 10/10 330 м +1.0 0.0 93 -4 -4 1007.4
СВ 4 16 км 10/10 660 м +1.0 -2.0 80 -5 -5 1007.0
СВ 4 16 км 10/10 660 м +1.0 -3.0 75 -4 -4 1006.0
В 4 16 км 10/10 660 м +1.0 -3.0 75 -4 -4 1005.7
СВ 4 24 км 10/10 540 м +1.0 -3.0 75 -5 -5 1005.0
СВ 4 24 км 10/10 420 м 0.0 -3.0 80 -6 -6 1004.7
СВ 4 16 км 10/10 390 м -1.0 -3.0 86 -7 -7 1003.4
СВ 4 16 км 10/10 390 м -1.0 -3.0 86 -7 -7 1001.7
СВ 4 16 км 10/10 390 м -1.0 -3.0 86 -7 -7 1001.0
Местоположение метеостанции Schenectady County Airport: широта 42.8500 долгота -73.9333 высота над уровнем моря 115 м.
В архиве по умолчанию представлена погода в Скенектади за последние 1-2 суток. Обновление информации о фактической погоде в базе происходит ежечасно! Архивные данные за месяц целиком и за предыдущие месяцы Вы можете получить, выбрав интересующий диапазон дат из раскрывающегося списка и нажав кнопку "Ввод!".
Внимание! Архив погоды МЕТАР в базе сайта по станциям, не включенным в климатический монитор, хранится не более 60 дней. Нет смысла пытаться выбрать более раннюю дату.
*Определитесь, кто Вы:
Внимание! Время в таблицах - всемирное. Для получения местного времени необходимо прибавить поправку, которая равна ч.
Смотрите также архив погоды в соседних городах и на ближайших метеорологических станциях:
Партнеры нашего сайта:      
Пояснения к столбцам:
  • Ветер - указаны скорость ветра в м/с - средняя за 10 мин, порывы в срок и между сроками (в фигурных скобках) и направление, откуда дует ветер: С - северный,
  • СВ - северо-восточный, В - восточный, ЮВ - юго-восточный, Ю - южный, ЮЗ - юго-западный, З - западный, СЗ - северо-западный.
  • Видимость - горизонтальная дальность видимости в метрах или километрах. При видимости от 1 до 10 км при отсутствии осадков обычно наблюдается дымка, при ухудшении видимости до 1 км и менее - туман. В сухую погоду видимость может ухудшаться дымом, пылью или мглою.
  • Явления - указаны атмосферные явления, наблюдавшиеся в срок или в последний час перед сроком; фигурными скобками обозначены явления, наблюдавшиеся между сроками (за 1-3 часа до срока); квадратными скобками обозначены град или гололедные отложения с указанием их диаметра в мм.
  • Облачность - указаны через наклонную черту общая и нижняя облачность в баллах и высота нижней границы облаков в метрах; квадратными скобками обозначены формы облаков: Ci - перистые, Cs - перисто-слоистые, Cc - перисто-кучевые, Ac - высококучевые, As - высокослоистые, Sc - слоисто-кучевые, Ns - слоисто-дождевые, Cu - кучевые, Cb - кучево-дождевые. Подробнее классификацию облаков см. в Атласе облаков (PDF).
  • T - Температура воздуха - температура, измеренная на высоте 2 м над землей.
  • Td - Температура точки росы - температура, при понижении до которой содержащийся в воздухе водяной пар достигнет насыщения.
  • f - Относительная влажность воздуха - влажноcть воздуха, измеренная на высоте 2 м над землей.
  • Te - Эффективная температура - температура, которую ощущает одетый по сезону человек в тени. Характеристика душности погоды. При расчете учитывается влияние влажности воздуха и скорости ветра на теплоощущения человека.
  • Tes - Эффективная температура на солнце - температура, которую ощущает человек, с поправкой на солнечный нагрев. Характеристика знойности погоды. Зависит от высоты солнца над горизонтом, облачности и скорости ветра. Ночью, в пасмурную погоду, а также при ветре 12 м/с и более поправка равна нулю.
  • P - Атмосферное давление - приведенное к уровню моря атмосферное давление.
  • Po - Атмосферное давление - измеренное на уровне метеостанции атмосферное давление.
  • Tmin - Минимальная температура - минимум температуры воздуха на высоте 2 м над землей.
  • Tmax - Максимальная температура - максимум температуры воздуха на высоте 2 м над землей.
  • R - Количество осадков - Количество выпавших осадков за период времени, мм. При наведении курсора мыши на число - период времени, за который выпало указанное количество осадков.
  • R24 - Количество осадков - Количество выпавших осадков за 24 часа, мм.
  • S - Снежный покров - Высота снежного покрова, см. При наведении курсора мыши на число - состояние снежного покрова и степень покрытия местности в баллах.